Time,TemperatureF,DewpointF,PressureIn,WindDirection,WindDirectionDegrees,WindSpeedMPH,WindSpeedGustMPH,Humidity,HourlyPrecipIn,Conditions,Clouds,dailyrainin,SoftwareType,DateUTC
2017-10-18 00:01:00,38.0,37.0,30.20,NNE,33,0.0,0.0,94,0.00,,,0.00,weatherlink.com 1.10,2017-10-18 04:01:00,
2017-10-18 00:16:00,37.8,37.0,30.20,NNE,32,0.0,0.0,95,0.00,,,0.00,weatherlink.com 1.10,2017-10-18 04:16:00,
2017-10-18 00:31:00,37.4,36.0,30.20,NNE,33,0.0,0.0,95,0.00,,,0.00,weatherlink.com 1.10,2017-10-18 04:31:00,
2017-10-18 00:46:00,37.1,36.0,30.20,NE,34,0.0,0.0,95,0.00,,,0.00,weatherlink.com 1.10,2017-10-18 04:46:00,
2017-10-18 01:01:00,37.1,36.0,30.19,NNE,33,0.0,0.0,96,0.00,,,0.00,weatherlink.com 1.10,2017-10-18 05:01:00,
2017-10-18 01:16:00,37.2,36.0,30.19,NE,34,0.0,0.0,96,0.00,,,0.00,weatherlink.com 1.10,2017-10-18 05:16:00,
2017-10-18 01:31:00,37.2,36.0,30.18,NNE,33,0.0,0.0,96,0.00,,,0.00,weatherlink.com 1.10,2017-10-18 05:31:00,
2017-10-18 01:47:00,37.2,37.0,30.18,NNE,33,0.0,0.0,97,0.00,,,0.00,weatherlink.com 1.10,2017-10-18 05:47:00,
2017-10-18 02:01:00,37.0,36.0,30.18,NNE,33,0.0,0.0,97,0.00,,,0.00,weatherlink.com 1.10,2017-10-18 06:01:00,
2017-10-18 02:16:00,37.1,36.0,30.19,NE,34,0.0,0.0,97,0.00,,,0.00,weatherlink.com 1.10,2017-10-18 06:16:00,
2017-10-18 02:31:00,37.4,37.0,30.19,NNE,33,0.0,0.0,97,0.00,,,0.00,weatherlink.com 1.10,2017-10-18 06:31:00,
2017-10-18 02:46:00,37.8,37.0,30.18,NE,34,0.0,0.0,98,0.00,,,0.00,weatherlink.com 1.10,2017-10-18 06:46:00,
2017-10-18 03:01:00,38.3,38.0,30.18,NE,34,0.0,0.0,98,0.00,,,0.00,weatherlink.com 1.10,2017-10-18 07:01:00,
2017-10-18 03:16:00,38.4,38.0,30.19,NE,34,0.0,0.0,98,0.00,,,0.00,weatherlink.com 1.10,2017-10-18 07:16:00,
2017-10-18 03:31:00,38.3,38.0,30.19,NE,34,0.0,0.0,98,0.00,,,0.00,weatherlink.com 1.10,2017-10-18 07:31:00,
2017-10-18 03:46:00,38.2,38.0,30.19,NE,34,0.0,0.0,98,0.00,,,0.00,weatherlink.com 1.10,2017-10-18 07:46:00,
2017-10-18 04:01:00,38.3,38.0,30.20,NE,34,0.0,0.0,98,0.00,,,0.00,weatherlink.com 1.10,2017-10-18 08:01:00,
2017-10-18 04:16:00,38.2,38.0,30.20,NE,34,0.0,0.0,98,0.00,,,0.00,weatherlink.com 1.10,2017-10-18 08:16:00,
2017-10-18 04:31:00,38.0,38.0,30.20,NE,34,0.0,0.0,98,0.00,,,0.00,weatherlink.com 1.10,2017-10-18 08:31:00,
2017-10-18 04:46:00,38.0,38.0,30.20,NE,34,0.0,0.0,98,0.00,,,0.00,weatherlink.com 1.10,2017-10-18 08:46:00,
2017-10-18 05:01:00,37.6,37.0,30.21,NE,34,0.0,0.0,98,0.00,,,0.00,weatherlink.com 1.10,2017-10-18 09:01:00,
2017-10-18 05:16:00,37.1,37.0,30.21,NE,34,0.0,0.0,98,0.00,,,0.00,weatherlink.com 1.10,2017-10-18 09:16:00,
2017-10-18 05:31:00,37.0,37.0,30.21,NE,34,0.0,0.0,98,0.00,,,0.00,weatherlink.com 1.10,2017-10-18 09:31:00,
2017-10-18 05:46:00,37.3,37.0,30.21,ENE,60,0.0,2.0,98,0.00,,,0.00,weatherlink.com 1.10,2017-10-18 09:46:00,
2017-10-18 06:02:00,37.1,37.0,30.22,North,360,0.0,1.0,98,0.00,,,0.00,weatherlink.com 1.10,2017-10-18 10:02:00,
2017-10-18 06:16:00,36.7,36.0,30.22,North,360,0.0,0.0,98,0.00,,,0.00,weatherlink.com 1.10,2017-10-18 10:16:00,
2017-10-18 06:31:00,36.5,36.0,30.23,North,360,0.0,1.0,98,0.00,,,0.00,weatherlink.com 1.10,2017-10-18 10:31:00,
2017-10-18 06:46:00,36.2,36.0,30.23,North,360,0.0,0.0,98,0.00,,,0.00,weatherlink.com 1.10,2017-10-18 10:46:00,
2017-10-18 07:01:00,35.9,35.0,30.24,North,359,0.0,0.0,98,0.00,,,0.00,weatherlink.com 1.10,2017-10-18 11:01:00,
2017-10-18 07:16:00,35.6,35.0,30.25,North,359,0.0,0.0,98,0.00,,,0.00,weatherlink.com 1.10,2017-10-18 11:16:00,
2017-10-18 07:31:00,35.6,35.0,30.25,North,359,0.0,0.0,98,0.00,,,0.00,weatherlink.com 1.10,2017-10-18 11:31:00,
2017-10-18 07:46:00,35.8,35.0,30.26,North,360,0.0,0.0,98,0.00,,,0.00,weatherlink.com 1.10,2017-10-18 11:46:00,
2017-10-18 08:01:00,36.1,36.0,30.26,North,360,0.0,0.0,99,0.00,,,0.00,weatherlink.com 1.10,2017-10-18 12:01:00,
2017-10-18 08:16:00,37.2,37.0,30.27,North,359,0.0,0.0,99,0.00,,,0.00,weatherlink.com 1.10,2017-10-18 12:16:00,
2017-10-18 08:31:00,38.8,39.0,30.28,North,358,0.0,1.0,99,0.00,,,0.00,weatherlink.com 1.10,2017-10-18 12:31:00,
2017-10-18 08:47:00,41.5,42.0,30.28,WNW,293,0.0,3.0,100,0.00,,,0.00,weatherlink.com 1.10,2017-10-18 12:47:00,
2017-10-18 09:02:00,43.6,43.0,30.28,WSW,252,1.0,1.0,99,0.00,,,0.00,weatherlink.com 1.10,2017-10-18 13:02:00,
2017-10-18 09:17:00,45.1,44.0,30.28,NNW,339,0.0,1.0,95,0.00,,,0.00,weatherlink.com 1.10,2017-10-18 13:17:00,
2017-10-18 09:32:00,46.3,44.0,30.29,SSW,203,1.0,1.0,92,0.00,,,0.00,weatherlink.com 1.10,2017-10-18 13:32:00,
2017-10-18 09:47:00,48.7,44.0,30.29,NNW,331,1.0,3.0,85,0.00,,,0.00,weatherlink.com 1.10,2017-10-18 13:47:00,
2017-10-18 10:02:00,50.6,45.0,30.29,South,191,0.0,2.0,80,0.00,,,0.00,weatherlink.com 1.10,2017-10-18 14:02:00,
2017-10-18 10:17:00,52.5,45.0,30.28,South,183,0.0,1.0,76,0.00,,,0.00,weatherlink.com 1.10,2017-10-18 14:17:00,
2017-10-18 10:32:00,54.6,47.0,30.28,WSW,255,0.0,2.0,75,0.00,,,0.00,weatherlink.com 1.10,2017-10-18 14:32:00,
2017-10-18 10:47:00,56.8,47.0,30.27,WNW,290,2.0,4.0,71,0.00,,,0.00,weatherlink.com 1.10,2017-10-18 14:47:00,
2017-10-18 11:02:00,58.6,48.0,30.27,West,276,1.0,5.0,69,0.00,,,0.00,weatherlink.com 1.10,2017-10-18 15:02:00,
2017-10-18 11:17:00,60.3,49.0,30.27,NW,304,2.0,5.0,67,0.00,,,0.00,weatherlink.com 1.10,2017-10-18 15:17:00,
2017-10-18 11:47:00,62.9,51.0,30.26,NW,325,1.0,7.0,66,0.00,,,0.00,weatherlink.com 1.10,2017-10-18 15:47:00,
2017-10-18 12:03:00,64.3,50.0,30.26,NNW,328,2.0,4.0,61,0.00,,,0.00,weatherlink.com 1.10,2017-10-18 16:03:00,
2017-10-18 12:18:00,65.1,50.0,30.26,WSW,253,0.0,6.0,59,0.00,,,0.00,weatherlink.com 1.10,2017-10-18 16:18:00,
2017-10-18 12:33:00,66.4,51.0,30.26,WSW,246,1.0,4.0,58,0.00,,,0.00,weatherlink.com 1.10,2017-10-18 16:33:00,
2017-10-18 12:48:00,66.8,51.0,30.25,WNW,288,0.0,5.0,57,0.00,,,0.00,weatherlink.com 1.10,2017-10-18 16:48:00,
2017-10-18 13:03:00,67.8,51.0,30.24,South,179,1.0,5.0,56,0.00,,,0.00,weatherlink.com 1.10,2017-10-18 17:03:00,
2017-10-18 13:18:00,68.5,52.0,30.24,SSW,212,2.0,4.0,57,0.00,,,0.00,weatherlink.com 1.10,2017-10-18 17:18:00,
2017-10-18 13:33:00,69.0,52.0,30.23,WNW,290,1.0,6.0,56,0.00,,,0.00,weatherlink.com 1.10,2017-10-18 17:33:00,
2017-10-18 13:48:00,69.2,53.0,30.22,WNW,294,0.0,3.0,56,0.00,,,0.00,weatherlink.com 1.10,2017-10-18 17:48:00,
2017-10-18 14:03:00,70.5,52.0,30.22,North,355,0.0,4.0,52,0.00,,,0.00,weatherlink.com 1.10,2017-10-18 18:03:00,
2017-10-18 14:18:00,71.6,53.0,30.21,SSW,207,1.0,2.0,52,0.00,,,0.00,weatherlink.com 1.10,2017-10-18 18:18:00,
2017-10-18 14:33:00,72.2,55.0,30.21,SE,124,0.0,3.0,55,0.00,,,0.00,weatherlink.com 1.10,2017-10-18 18:33:00,
2017-10-18 14:48:00,71.9,54.0,30.20,ENE,77,1.0,4.0,53,0.00,,,0.00,weatherlink.com 1.10,2017-10-18 18:48:00,
2017-10-18 15:03:00,71.7,54.0,30.20,NE,47,1.0,3.0,53,0.00,,,0.00,weatherlink.com 1.10,2017-10-18 19:03:00,
2017-10-18 15:18:00,70.7,53.0,30.20,SSW,210,0.0,3.0,54,0.00,,,0.00,weatherlink.com 1.10,2017-10-18 19:18:00,
2017-10-18 15:33:00,70.2,53.0,30.20,ESE,104,0.0,4.0,55,0.00,,,0.00,weatherlink.com 1.10,2017-10-18 19:33:00,
2017-10-18 15:48:00,69.5,53.0,30.20,SW,215,1.0,2.0,56,0.00,,,0.00,weatherlink.com 1.10,2017-10-18 19:48:00,
2017-10-18 16:03:00,69.1,54.0,30.20,WSW,238,1.0,2.0,58,0.00,,,0.00,weatherlink.com 1.10,2017-10-18 20:03:00,
2017-10-18 16:18:00,68.8,54.0,30.19,NNE,18,0.0,2.0,59,0.00,,,0.00,weatherlink.com 1.10,2017-10-18 20:18:00,
2017-10-18 16:33:00,68.4,54.0,30.19,NNE,15,0.0,0.0,60,0.00,,,0.00,weatherlink.com 1.10,2017-10-18 20:33:00,
2017-10-18 16:48:00,67.4,53.0,30.19,North,355,0.0,1.0,61,0.00,,,0.00,weatherlink.com 1.10,2017-10-18 20:48:00,
2017-10-18 17:03:00,66.6,54.0,30.19,NNW,337,0.0,1.0,64,0.00,,,0.00,weatherlink.com 1.10,2017-10-18 21:03:00,
2017-10-18 17:18:00,65.4,54.0,30.19,NNW,335,0.0,1.0,66,0.00,,,0.00,weatherlink.com 1.10,2017-10-18 21:18:00,
2017-10-18 17:37:00,63.7,53.0,30.19,NNW,336,0.0,0.0,69,0.00,,,0.00,weatherlink.com 1.10,2017-10-18 21:37:00,
2017-10-18 17:48:00,61.3,54.0,30.19,NNW,335,0.0,0.0,76,0.00,,,0.00,weatherlink.com 1.10,2017-10-18 21:48:00,
2017-10-18 18:04:00,58.8,53.0,30.20,NNW,336,0.0,0.0,80,0.00,,,0.00,weatherlink.com 1.10,2017-10-18 22:04:00,
2017-10-18 18:19:00,56.7,51.0,30.20,NNW,336,0.0,0.0,82,0.00,,,0.00,weatherlink.com 1.10,2017-10-18 22:19:00,
2017-10-18 18:33:00,54.9,51.0,30.20,NNW,336,0.0,0.0,86,0.00,,,0.00,weatherlink.com 1.10,2017-10-18 22:33:00,
2017-10-18 18:48:00,53.5,50.0,30.21,NNW,336,0.0,0.0,89,0.00,,,0.00,weatherlink.com 1.10,2017-10-18 22:48:00,
2017-10-18 19:03:00,52.3,50.0,30.21,NNW,336,0.0,0.0,90,0.00,,,0.00,weatherlink.com 1.10,2017-10-18 23:03:00,
2017-10-18 19:18:00,51.3,49.0,30.21,NNW,336,0.0,0.0,92,0.00,,,0.00,weatherlink.com 1.10,2017-10-18 23:18:00,
2017-10-18 19:33:00,50.4,49.0,30.21,NNW,336,0.0,0.0,93,0.00,,,0.00,weatherlink.com 1.10,2017-10-18 23:33:00,
2017-10-18 19:48:00,49.5,48.0,30.21,NNW,336,0.0,0.0,94,0.00,,,0.00,weatherlink.com 1.10,2017-10-18 23:48:00,
2017-10-18 20:03:00,49.0,48.0,30.21,NNW,336,0.0,0.0,95,0.00,,,0.00,weatherlink.com 1.10,2017-10-19 00:03:00,
2017-10-18 20:18:00,48.2,47.0,30.21,NNW,336,0.0,0.0,95,0.00,,,0.00,weatherlink.com 1.10,2017-10-19 00:18:00,
2017-10-18 20:33:00,47.5,47.0,30.21,NNW,336,0.0,0.0,96,0.00,,,0.00,weatherlink.com 1.10,2017-10-19 00:33:00,
2017-10-18 20:48:00,46.8,46.0,30.22,NNW,336,0.0,0.0,96,0.00,,,0.00,weatherlink.com 1.10,2017-10-19 00:48:00,
2017-10-18 21:03:00,46.5,46.0,30.21,NNW,336,0.0,0.0,96,0.00,,,0.00,weatherlink.com 1.10,2017-10-19 01:03:00,
2017-10-18 21:18:00,46.4,46.0,30.22,NNW,336,0.0,0.0,97,0.00,,,0.00,weatherlink.com 1.10,2017-10-19 01:18:00,
2017-10-18 21:33:00,46.4,46.0,30.22,NNW,336,0.0,0.0,97,0.00,,,0.00,weatherlink.com 1.10,2017-10-19 01:33:00,
2017-10-18 21:48:00,45.9,45.0,30.22,NNW,336,0.0,0.0,97,0.00,,,0.00,weatherlink.com 1.10,2017-10-19 01:48:00,
2017-10-18 22:04:00,45.5,45.0,30.22,NNW,336,0.0,0.0,97,0.00,,,0.00,weatherlink.com 1.10,2017-10-19 02:04:00,
2017-10-18 22:19:00,45.2,44.0,30.22,NNW,336,0.0,0.0,97,0.00,,,0.00,weatherlink.com 1.10,2017-10-19 02:19:00,
2017-10-18 22:33:00,44.9,44.0,30.21,NNW,336,0.0,0.0,98,0.00,,,0.00,weatherlink.com 1.10,2017-10-19 02:33:00,
2017-10-18 22:48:00,44.6,44.0,30.21,NNW,336,0.0,0.0,98,0.00,,,0.00,weatherlink.com 1.10,2017-10-19 02:48:00,